Temperature
16 16 16 16 16 16 16 16 16 15 14 15 14 14 14 14 14 14 14 14 14 14 13 13 13 13 13 13 13 13 13 13 13 13 13 13 13 13
16 16 16 16 16 16 16 16 15 15 14 14 14 14 14 14 13 13 13 13 13 13 13 13 13 13 13 13 13 13 13 13 12 12 12 12 12 12
16 16 16 16 16 16 16 15 15 15 15 14 14 13 13 13 13 13 13 13 13 12 12 12 12 12 12 12 12 12 12 12 12 12 12 12 12 12
16 16 15 15 15 15 15 15 15 15 15 14 13 13 13 13 13 12 12 12 12 12 12 12 12 11 11 11 11 11 11 11 11 11 11 11 11 11
15 15 15 15 15 15 15 14 14 14 14 14 13 13 12 12 12 12 12 12 11 11 11 11 11 11 11 11 11 11 10 10 10 10 10 10 10 10
15 15 15 15 14 14 14 14 14 14 13 13 13 12 12 12 12 12 11 11 11 11 10 10 10 10 10 10 10 10 10 10 10 10 9 9 9 9
14 14 14 14 14 14 13 13 13 13 13 13 12 12 12 11 11 11 11 10 10 10 10 10 10 10 9 9 9 9 9 9 9 9 9 9 9 9
14 14 13 13 13 13 13 13 13 13 13 13 12 12 11 11 11 11 10 10 10 10 10 9 9 9 9 9 9 9 9 9 8 8 8 8 8 8
13 13 13 13 13 13 12 12 12 12 12 12 12 11 11 11 10 10 10 10 10 9 9 9 9 9 9 9 8 8 8 8 8 8 8 8 8 8
13 13 13 13 12 12 12 12 12 12 11 11 11 11 10 10 10 10 10 10 9 9 9 9 8 8 8 8 8 8 8 8 8 8 7 7 7 7
12 12 12 12 12 12 12 11 11 11 11 11 10 10 10 10 10 10 9 9 9 9 8 8 8 8 8 8 8 8 7 7 7 7 7 7 7 7
12 12 12 11 11 11 11 11 11 11 10 10 10 10 10 10 9 9 9 9 9 8 8 8 8 8 7 7 7 7 7 7 7 7 7 6 6 6
12 11 11 11 11 11 11 11 10 10 10 10 10 9 9 9 9 9 9 9 9 8 8 8 8 7 7 7 7 7 7 7 7 6 6 6 6 6
11 11 11 10 10 10 10 10 10 10 10 10 9 9 9 9 9 9 8 8 8 8 8 8 7 7 7 7 7 6 6 6 6 6 6 6 6 6
11 10 10 10 10 10 9 9 9 9 9 9 9 9 8 8 8 8 8 8 8 8 8 7 7 7 7 7 6 6 6 6 6 6 6 6 5 5
10 10 10 10 10 9 9 9 9 9 9 9 8 8 8 8 8 8 8 7 7 7 7 7 7 7 7 6 6 6 6 6 6 6 5 5 5 5
10 10 10 9 9 9 9 9 8 8 8 8 8 8 8 8 8 7 7 7 7 7 7 6 6 6 6 6 6 6 6 5 5 5 5 5 5 5
10 10 9 9 9 9 9 9 8 8 8 8 8 8 8 7 7 7 7 7 7 6 6 6 6 6 6 6 5 5 5 5 5 5 5 5 5 5
10 9 9 9 9 9 8 8 8 8 8 8 7 7 7 7 7 7 7 6 6 6 6 6 6 5 5 5 5 5 5 5 5 5 4 4 4 4
9 9 9 9 8 8 8 8 8 8 7 7 7 7 7 7 7 7 6 6 6 6 6 5 5 5 5 5 5 5 5 4 4 4 4 4 4 4
9 9 9 8 8 8 8 8 7 7 7 7 7 7 7 6 6 6 6 6 6 5 5 5 5 5 5 4 4 4 4 4 4 4 4 4 4 3
9 8 8 8 8 8 8 7 7 7 7 7 7 6 6 6 6 6 6 5 5 5 5 5 5 4 4 4 4 4 4 4 4 4 4 4 3 3
8 8 8 8 8 7 7 7 7 7 7 6 6 6 6 6 6 5 5 5 5 5 5 4 4 4 4 4 4 4 4 4 3 3 4 3 3 3
Wind_Speed
1 0 0 0 1 2 2 3 3 2 0 0 1 3 5 7 8 9 9 11 12 12 12 11 11 10 10 9 8 8 7 7 6 5 5 5 5 5
1 2 1 1 1 1 2 1 2 3 2 1 1 2 5 7 10 10 11 13 14 13 13 13 12 12 12 12 12 11 10 9 8 8 7 7 6 6
3 3 2 2 2 2 2 2 2 3 3 2 2 3 4 6 7 9 10 10 12 14 14 14 14 13 13 12 12 12 12 11 11 10 10 9 8 8
4 4 4 3 4 3 3 3 2 3 4 4 2 3 4 5 6 6 7 9 10 13 14 14 14 13 13 12 12 12 12 12 12 12 12 11 11 10
5 5 4 4 4 4 3 3 3 4 4 5 3 2 3 4 5 5 7 6 8 10 11 12 12 13 13 12 12 12 12 12 12 12 12 12 12 11
5 5 5 4 4 4 4 4 5 5 5 5 4 3 3 2 3 4 4 4 4 7 9 10 11 12 13 12 12 11 11 11 11 11 11 11 11 11
7 7 7 9 9 6 5 4 5 5 5 5 4 3 3 2 2 2 3 3 3 3 4 5 6 7 8 9 10 10 10 10 10 10 10 10 10 10
7 6 7 8 10 12 12 10 7 6 5 4 3 3 2 2 2 3 3 2 1 2 2 3 4 4 4 5 7 8 8 8 8 8 8 8 8 8
6 5 5 7 8 7 10 11 10 10 7 5 4 3 2 2 3 3 2 2 1 1 1 2 2 2 3 5 6 6 6 6 6 6 6 6 6 7
6 5 5 6 6 7 7 8 8 7 6 5 4 3 3 2 3 3 3 3 2 2 1 1 1 2 2 4 5 5 5 5 5 5 5 5 5 5
6 6 6 6 8 9 7 7 7 6 9 11 10 9 9 7 6 4 3 3 2 1 1 1 1 1 2 2 4 5 5 5 5 5 5 5 4 4
5 6 8 8 9 8 6 6 6 4 5 6 8 9 8 8 7 4 3 2 1 0 0 0 0 1 1 1 2 4 4 4 5 5 5 5 5 4
4 4 5 9 10 9 7 5 4 4 5 6 6 6 6 6 6 5 3 2 1 0 0 0 0 1 0 1 2 3 3 3 4 5 6 6 5 4
4 3 4 8 10 9 7 7 8 7 5 5 5 4 4 4 4 4 5 4 3 1 1 0 0 0 1 1 2 3 3 3 3 4 5 6 6 5
4 5 7 9 9 7 8 8 6 5 5 4 4 2 2 2 3 3 5 6 6 6 5 3 1 0 0 1 2 2 3 3 3 4 4 5 4 4
5 6 8 9 8 7 6 6 5 4 3 3 2 2 2 3 3 3 2 3 3 4 6 7 3 1 1 1 2 3 3 3 4 4 5 4 4 4
4 4 4 3 4 4 4 3 3 3 3 2 2 2 3 3 2 2 2 2 2 3 4 4 5 3 1 1 2 3 3 4 4 4 4 4 4 5
5 3 3 2 2 2 2 2 2 2 2 2 2 2 2 2 2 2 2 2 2 2 3 4 4 3 2 1 2 3 4 4 4 4 3 4 5 5
4 3 2 1 1 1 1 1 1 1 1 2 2 2 1 1 1 1 2 2 2 3 3 3 3 3 4 6 4 3 3 4 4 4 4 4 5 6
2 2 1 1 1 1 1 1 1 1 2 2 2 1 1 1 1 1 1 1 2 2 3 3 3 3 4 5 5 5 5 5 5 5 5 5 5 7
1 1 1 1 1 1 0 1 1 1 1 1 1 1 1 1 1 1 1 2 2 2 3 4 4 5 3 2 4 5 5 6 6 5 5 5 6 5
2 2 1 1 1 1 1 1 0 0 0 0 1 1 1 1 1 2 2 2 2 3 4 4 4 3 2 4 6 7 7 7 7 8 8 7 5 6
2 2 2 1 1 1 1 1 1 1 1 1 1 1 1 1 1 2 2 2 2 3 4 4 4 3 3 4 5 6 8 8 6 6 6 8 10 12
Wind_Direction
18 45 165 160 161 177 178 175 169 172 189 65 67 48 65 68 63 68 69 67 71 73 71 68 67 65 64 62 59 56 56 57 59 60 55 47 39 30
53 58 37 32 76 104 160 169 173 167 165 106 78 60 74 76 65 68 69 69 67 69 68 66 65 64 62 62 62 60 59 59 61 60 57 52 46 37
49 59 41 47 66 69 90 114 129 137 141 101 68 65 65 72 66 68 67 66 66 67 68 68 68 67 65 64 63 61 60 59 59 58 56 51 45 42
52 57 46 56 57 57 72 88 104 119 135 124 89 65 67 73 69 68 66 67 69 66 67 66 65 64 62 61 61 60 59 58 58 57 56 53 50 47
60 62 52 61 60 60 69 77 86 96 106 119 105 74 72 76 73 69 64 58 66 62 60 60 59 59 60 60 60 59 58 57 58 58 56 54 52 50
57 57 55 61 67 70 72 86 97 99 101 108 106 88 79 75 87 85 70 54 59 58 57 57 55 57 56 56 57 58 56 55 56 56 54 51 49 46
57 54 56 63 64 67 80 91 102 105 106 109 106 95 93 101 103 104 98 79 57 44 51 47 45 46 43 44 48 52 54 53 53 51 49 47 46 44
64 57 60 59 64 65 69 75 88 111 119 112 106 115 113 119 111 121 125 108 75 18 47 41 39 42 36 39 40 43 44 45 46 46 46 48 48 45
64 60 64 58 61 69 69 68 66 70 90 117 119 126 135 150 138 127 122 99 92 42 77 51 26 28 24 32 35 36 35 35 39 41 42 42 41 39
63 66 71 57 60 74 75 68 59 53 62 81 101 101 103 124 136 142 136 109 85 52 46 61 22 14 12 16 24 31 33 33 32 31 26 21 23 24
56 61 71 67 62 73 80 78 67 54 61 71 76 76 78 85 104 114 110 106 79 38 31 74 17 357 353 355 8 19 26 30 26 19 14 14 9 2
58 54 64 72 68 74 85 88 81 65 65 62 59 56 59 62 70 85 123 124 103 77 23 86 360 348 349 352 348 357 5 7 4 1 358 353 347 344
78 61 58 70 73 73 80 86 93 95 87 79 70 58 53 50 47 46 59 109 112 64 319 166 21 336 310 308 320 331 339 343 346 345 347 344 338 328
93 78 73 76 76 72 74 77 78 79 83 78 70 55 47 38 31 38 50 57 55 47 351 162 309 239 299 305 313 325 328 337 340 333 333 335 334 324
96 91 84 81 77 72 71 73 74 78 81 77 67 47 23 16 29 40 46 51 50 44 35 24 28 56 297 297 305 313 315 318 324 325 326 327 324 325
88 80 77 75 70 65 64 60 60 70 85 82 65 40 32 41 39 32 38 30 40 24 21 23 26 24 338 321 302 310 311 311 320 324 318 313 314 312
105 84 75 75 70 60 55 54 58 64 64 62 66 59 49 45 34 26 33 41 41 10 360 1 6 11 322 286 303 307 310 312 312 318 309 308 310 313
105 97 91 86 90 86 81 60 52 50 50 64 66 58 49 43 35 28 31 42 32 358 346 343 345 351 346 321 256 285 303 307 310 310 300 300 307 310
102 109 113 110 97 86 83 75 51 32 42 59 57 44 39 35 32 22 23 23 3 344 339 340 342 343 332 324 320 275 283 303 308 308 302 293 293 303
115 142 154 144 128 119 106 86 66 55 57 51 45 36 30 23 8 353 348 345 337 333 337 337 334 323 307 308 308 308 289 283 298 304 305 298 287 289
142 164 172 168 174 182 183 142 122 94 55 48 29 15 3 10 347 328 321 323 323 322 320 320 317 308 294 292 303 310 307 290 273 279 294 299 303 302
174 181 191 190 195 195 192 174 159 280 337 341 325 326 329 322 309 310 308 305 305 307 306 313 327 330 316 305 309 312 314 318 311 295 270 260 285 300
188 188 188 191 202 211 208 197 216 276 275 271 281 292 301 303 298 294 298 305 314 318 318 318 325 327 320 309 308 311 314 319 320 322 317 301 282 280
Height
1542 1541 1541 1541 1541 1541 1542 1542 1543 1543 1544 1545 1545 1545 1545 1545 1545 1545 1544 1543 1543 1542 1542 1542 1542 1541 1541 1541 1540 1540 1540 1539 1539 1538 1538 1538 1538 1538
1541 1540 1539 1539 1539 1540 1540 1540 1541 1542 1542 1543 1544 1544 1544 1544 1545 1544 1544 1543 1543 1542 1541 1541 1540 1540 1540 1539 1539 1538 1538 1537 1537 1536 1536 1536 1535 1535
1540 1539 1539 1538 1538 1538 1538 1538 1539 1540 1540 1542 1543 1543 1543 1544 1544 1544 1544 1543 1543 1542 1542 1541 1541 1540 1539 1539 1538 1537 1537 1536 1535 1534 1534 1534 1533 1533
1539 1538 1538 1538 1537 1537 1537 1537 1538 1539 1539 1540 1542 1543 1543 1544 1544 1544 1544 1544 1543 1543 1542 1542 1541 1541 1540 1539 1538 1537 1536 1536 1534 1534 1533 1532 1532 1531
1539 1538 1538 1537 1537 1537 1537 1537 1538 1538 1539 1540 1541 1542 1543 1544 1544 1544 1544 1544 1544 1544 1544 1543 1543 1542 1541 1540 1539 1538 1537 1536 1535 1534 1533 1532 1531 1530
1539 1538 1538 1538 1538 1537 1537 1538 1538 1538 1539 1540 1540 1541 1543 1543 1544 1544 1544 1545 1545 1545 1544 1544 1544 1543 1542 1541 1540 1539 1538 1537 1535 1534 1533 1532 1531 1530
1540 1539 1539 1539 1539 1538 1538 1538 1539 1539 1539 1540 1541 1541 1542 1543 1544 1544 1545 1545 1545 1545 1545 1544 1544 1543 1543 1542 1541 1540 1539 1537 1536 1535 1534 1532 1531 1530
1541 1541 1541 1540 1540 1540 1540 1540 1540 1540 1540 1540 1541 1542 1542 1543 1544 1544 1544 1544 1544 1545 1545 1545 1544 1544 1543 1542 1541 1540 1539 1538 1536 1535 1534 1533 1531 1529
1543 1542 1542 1541 1541 1541 1540 1540 1540 1541 1541 1541 1541 1542 1542 1543 1543 1544 1544 1544 1544 1545 1545 1544 1544 1543 1543 1542 1542 1540 1539 1538 1536 1535 1533 1532 1530 1529
1544 1544 1543 1542 1542 1542 1542 1541 1541 1541 1541 1542 1542 1542 1543 1543 1544 1544 1544 1544 1544 1544 1544 1544 1543 1543 1542 1542 1541 1540 1538 1537 1536 1534 1533 1531 1529 1528
1545 1545 1544 1543 1543 1543 1542 1542 1542 1542 1542 1543 1543 1543 1543 1543 1544 1544 1544 1544 1543 1544 1544 1543 1542 1542 1541 1540 1540 1539 1537 1536 1535 1533 1531 1530 1528 1527
1546 1546 1546 1545 1545 1544 1544 1543 1543 1543 1543 1543 1544 1544 1544 1544 1544 1544 1544 1544 1543 1543 1543 1543 1542 1541 1540 1539 1538 1537 1536 1535 1533 1532 1530 1528 1527 1525
1547 1547 1547 1546 1546 1545 1545 1545 1545 1545 1545 1545 1545 1545 1545 1545 1544 1544 1544 1544 1543 1543 1543 1542 1541 1540 1540 1538 1537 1536 1535 1533 1532 1530 1528 1527 1525 1523
1548 1548 1548 1548 1547 1547 1546 1546 1547 1547 1546 1546 1546 1546 1545 1545 1545 1544 1544 1544 1543 1543 1542 1541 1540 1539 1538 1536 1535 1534 1533 1531 1530 1528 1526 1524 1523 1521
1549 1549 1549 1549 1548 1548 1548 1548 1548 1548 1547 1547 1546 1546 1546 1546 1545 1545 1544 1544 1543 1542 1541 1540 1539 1538 1537 1536 1534 1532 1531 1529 1528 1526 1524 1522 1520 1518
1549 1550 1550 1550 1550 1549 1549 1549 1549 1549 1548 1548 1547 1547 1547 1546 1546 1545 1544 1544 1543 1542 1541 1539 1538 1537 1535 1534 1532 1530 1529 1527 1525 1523 1521 1519 1517 1515
1550 1550 1551 1551 1550 1550 1550 1549 1550 1550 1549 1548 1548 1547 1546 1546 1545 1545 1544 1543 1542 1541 1539 1538 1537 1535 1534 1533 1531 1529 1527 1525 1523 1520 1518 1516 1514 1512
1551 1551 1551 1551 1551 1551 1551 1550 1550 1550 1549 1548 1548 1547 1546 1546 1545 1544 1543 1542 1541 1540 1538 1537 1535 1533 1532 1531 1530 1527 1525 1522 1520 1518 1515 1513 1510 1509
1551 1551 1551 1552 1551 1551 1551 1551 1550 1550 1549 1548 1547 1547 1546 1545 1544 1543 1543 1541 1540 1539 1538 1536 1534 1532 1530 1527 1526 1525 1522 1519 1517 1514 1512 1510 1507 1505
1551 1551 1551 1552 1552 1551 1551 1550 1550 1549 1548 1547 1547 1546 1545 1544 1543 1542 1541 1540 1539 1538 1536 1535 1533 1531 1529 1527 1524 1522 1520 1517 1514 1511 1508 1506 1503 1501
1551 1551 1551 1551 1551 1551 1551 1550 1549 1548 1547 1546 1545 1545 1544 1543 1542 1541 1540 1539 1537 1536 1534 1533 1531 1529 1527 1524 1521 1518 1516 1514 1511 1508 1505 1502 1499 1497
1550 1551 1551 1551 1550 1550 1550 1549 1548 1547 1546 1545 1544 1543 1542 1541 1540 1539 1538 1537 1535 1534 1532 1530 1528 1526 1524 1521 1518 1515 1513 1510 1508 1505 1502 1500 1497 1493
1550 1550 1550 1550 1549 1549 1548 1548 1547 1546 1545 1544 1543 1542 1541 1540 1539 1537 1536 1535 1533 1531 1529 1527 1525 1523 1521 1518 1516 1513 1510 1507 1504 1501 1499 1496 1494 1491